Location: Ben Rhalil
(32.7539°N, 5.6769°W)
Time: 22:32:21
(UTC+00:00)

Daily predictions for brighter satellites

Satellite Brightness Start Highest point End
(mag) Time Altitude Azimuth Time Altitude Azimuth Time Altitude Azimuth
Cosmos 1125 Rocket 4.0 18:37:16 10° SSE 18:42:07 38° E 18:47:01 10° NE
SKYMED 2 4.3 18:38:07 10° N 18:42:23 61° WNW 18:46:39 10° SSW
Okean 2 3.8 18:42:29 10° NNW 18:46:38 70° W 18:50:43 10° S
Cosmos 2150 Rocket 4.0 18:43:38 10° S 18:48:57 73° ESE 18:54:22 10° NNE
CZ-2D R/B 3.2 18:45:17 10° SSE 18:49:07 64° ENE 18:52:57 10° N
CZ-4 R/B 1.7 18:45:06 10° SSE 18:49:11 51° ENE 18:53:14 10° N
Cosmos 1464 Rocket 4.0 18:44:39 10° SSE 18:50:35 56° E 18:56:36 10° NNE
CZ-2C R/B 3.7 18:46:27 10° SE 18:51:16 38° ENE 18:56:21 10° N
GOES 2 Rocket 3.5 18:47:34 10° WSW 18:51:52 47° S 18:55:37 12° ESE
Cosmos 1603 4.5 18:46:53 10° NNW 18:52:23 56° WSW 18:57:50 10° S
Cosmos 1867 3.6 18:47:11 10° NNW 18:52:37 66° ENE 18:58:00 10° SE
Cosmos 2285 Rocket 4.4 18:46:53 10° SSE 18:52:40 40° E 18:58:30 10° NNE
Okean-O 2.6 18:48:37 10° SSE 18:53:00 68° ENE 18:57:24 10° N
Cosmos 1674 4.5 18:58:03 10° NE 18:59:59 13° ENE 19:00:17 13° E
TSX-5 4.4 19:01:11 10° SSE 19:04:13 30° ESE 19:07:49 10° NE
ARGOS 4.0 19:02:25 10° SE 19:06:58 29° ENE 19:11:32 10° NNE
MOS 1 Rocket 3.3 19:03:12 10° NNE 19:07:19 45° E 19:11:24 10° S
Cosmos 2151 Rocket 3.5 19:08:10 10° S 19:12:34 69° E 19:17:02 10° NNE
HJ-1C 3.8 19:11:12 12° SE 19:13:57 37° ENE 19:17:02 10° N
In-Cosmos 22 4.2 19:09:18 10° N 19:14:32 55° E 19:19:52 10° SSE
Cosmos 1048 Rocket 4.5 19:10:15 10° N 19:15:18 41° ENE 19:19:50 13° SE
H-2A R/B 2.0 19:14:14 10° WSW 19:15:53 29° S 19:16:58 22° SE
CZ-2C R/B 3.4 19:12:59 10° NE 19:17:51 30° E 19:22:42 10° SSE
Shenzhou-11 Module 3.8 19:18:07 10° WNW 19:19:30 15° NNW 19:20:33 12° NNE
Cosmos 1975 Rocket 4.4 19:17:11 10° NNW 19:21:15 42° W 19:25:19 10° SSW
NOSS 3-2 (A) 4.3 19:13:59 10° NNW 19:21:42 56° ENE 19:28:55 15° SE
Meteor 1-15 Rocket 4.2 19:17:34 10° S 19:23:04 60° E 19:28:41 10° NNE
BREEZE-M DEB (TANK) 4.2 19:19:54 10° NNW 19:23:19 32° NE 19:27:36 20° E
Cosmos 1805 3.7 19:20:13 10° SSE 19:23:50 38° E 19:27:28 10° NNE
ATLAS 5 CENTAUR R/B 3.4 19:23:59 10° NW 19:28:07 84° SW 19:44:09 10° SSE
Ariane Rocket 4.0 19:28:06 25° E 19:28:54 26° ENE 19:33:02 10° NNE
Milstar 3 Cent rocket 2.9 19:21:02 10° WSW 19:29:43 53° S 19:32:39 26° ESE
H-2A R/B 1.9 19:25:14 10° SSE 19:30:07 66° ENE 19:35:09 10° N
USA 234 3.8 19:38:13 27° E 19:40:25 33° SE 19:46:10 10° S
USA 186 4.0 19:42:34 15° NNE 19:42:34 15° NNE 19:43:18 10° NNE
KORONAS-FOTON 4.1 19:37:56 10° N 19:41:32 44° ENE 19:41:32 44° ENE
Cosmos 1844 Rocket 4.2 19:36:45 10° SW 19:41:52 37° WNW 19:47:02 10° N
Nadezhda 4 Rocket 3.8 19:35:52 10° N 19:42:00 72° E 19:48:07 10° SSE
Cosmos 1707 4.3 19:40:46 10° NNW 19:44:18 36° W 19:47:50 10° SSW
CZ-2C R/B 1.2 19:41:11 10° W 19:44:51 54° SSW 19:45:20 49° SSE
Cosmos 2278 Rocket 2.6 19:40:51 10° S 19:45:59 37° ESE 19:46:15 37° E
Meteor 1-22 Rocket 4.4 19:45:19 10° SSE 19:50:54 51° E 19:56:42 10° NNE
Cosmos 2034 Rocket 4.5 19:45:23 10° SSW 19:51:40 63° W 19:57:57 10° N
Exosat Rocket 4.4 19:48:23 10° SSW 19:54:09 53° WNW 19:59:04 10° N
Okean 1 Rocket 3.1 19:51:49 10° S 19:56:16 84° W 20:00:46 10° N
NOSS 3-4 (A) 3.8 19:51:18 10° SW 19:57:04 61° WNW 20:03:06 10° NNE
NOSS 3-4 (C) 3.8 19:51:24 10° SW 19:57:10 61° WNW 20:03:12 10° NNE
NOSS 3-2 (C) 4.2 19:52:12 10° NNW 20:00:01 62° ENE 20:03:38 37° ESE
Meteor 2-5 Rocket 3.9 19:54:33 10° N 20:00:08 51° E 20:00:46 49° ESE
Meteor 1-24 Rocket 4.3 19:57:08 10° N 20:01:38 38° ENE 20:01:38 38° ENE
Cosmos 1766 3.4 20:01:41 10° SSW 20:05:33 70° W 20:09:29 10° N
Meteor 2-13 Rocket 4.3 19:59:55 10° N 20:06:04 72° E 20:08:35 37° SSE
Cosmos 1833 Rocket 4.4 20:09:36 10° N 20:11:54 18° NNE 20:11:54 18° NNE
CENTAUR R/B 3.2 20:10:30 10° NNW 20:18:58 77° ENE 20:22:00 46° SE
Cosmos 1634 Rocket 3.9 20:13:09 10° S 20:19:18 88° W 20:25:31 10° N
ATLAS 2AS CENTAUR R/B 3.6 20:11:41 10° SW 20:19:23 57° WNW 20:27:12 10° NNE
ATLAS 3B R/B 3.8 20:24:50 10° N 20:29:50 29° NE 20:29:50 29° NE
Gbstr 26 Del rocket 4.1 20:27:33 10° SW 20:34:11 85° SE 20:35:23 66° NE
Cosmos 2026 Rocket 4.1 20:40:20 10° N 20:46:41 74° W 20:46:52 74° WSW
CZ-2C R/B 4.5 20:53:11 10° N 20:57:59 30° WNW 21:02:47 10° SW
Cosmos 2082 Rocket 4.4 21:02:07 10° N 21:03:08 15° N 21:03:08 15° N
USA 234 4.3 21:25:40 39° W 21:25:40 39° W 21:29:51 10° WSW
Cosmos 2278 Rocket 4.2 21:25:30 10° WSW 21:33:01 17° NNW 21:34:41 10° N
